Meteo pe oră la Al-Jadida

Astăzi, 22 Ianuarie, Vineri

Timp Temperatura Precipitaţii Vânt Presiune Umiditate
00:00 +15°C° 0 mm 5 m/s 767 mmHg 95%
01:00 +15°C° 0 mm 5 m/s 767 mmHg 94%
02:00 +14°C° 0 mm 5 m/s 767 mmHg 94%
03:00 +14°C° 0 mm 5 m/s 767 mmHg 93%
04:00 +14°C° 0 mm 5 m/s 767 mmHg 93%
05:00 +14°C° 0 mm 6 m/s 767 mmHg 93%
06:00 +15°C° 0.1 mm 6 m/s 767 mmHg 91%
07:00 +15°C° 0.1 mm 6 m/s 767 mmHg 89%
08:00 +16°C° 0.1 mm 6 m/s 768 mmHg 88%
09:00 +17°C° 0.1 mm 6 m/s 768 mmHg 87%
10:00 +19°C° 0.1 mm 6 m/s 768 mmHg 86%
11:00 +20°C° 0.1 mm 5 m/s 768 mmHg 85%
12:00 +20°C° 0 mm 5 m/s 768 mmHg 83%
13:00 +20°C° 0 mm 5 m/s 767 mmHg 81%
14:00 +20°C° 0 mm 4 m/s 767 mmHg 80%
15:00 +19°C° 0 mm 4 m/s 767 mmHg 84%
16:00 +18°C° 0 mm 3 m/s 767 mmHg 88%
17:00 +16°C° 0 mm 2 m/s 767 mmHg 92%
18:00 +16°C° 0 mm 2 m/s 768 mmHg 92%
19:00 +15°C° 0 mm 2 m/s 768 mmHg 93%
20:00 +15°C° 0 mm 2 m/s 769 mmHg 93%
21:00 +14°C° 0 mm 3 m/s 768 mmHg 92%
22:00 +14°C° 0 mm 3 m/s 768 mmHg 92%
23:00 +14°C° 0 mm 3 m/s 768 mmHg 91%

Mâine, 23 Ianuarie, Sâmbătă

Timp Temperatura Precipitaţii Vânt Presiune Umiditate
00:00 +14°C° 0 mm 3 m/s 768 mmHg 89%
01:00 +14°C° 0 mm 3 m/s 768 mmHg 87%
02:00 +14°C° 0 mm 3 m/s 768 mmHg 85%
03:00 +15°C° 0 mm 2 m/s 768 mmHg 83%
04:00 +15°C° 0 mm 2 m/s 767 mmHg 82%
05:00 +15°C° 0 mm 2 m/s 767 mmHg 81%
06:00 +15°C° 0 mm 2 m/s 767 mmHg 79%
07:00 +15°C° 0 mm 2 m/s 768 mmHg 78%
08:00 +15°C° 0 mm 2 m/s 768 mmHg 77%
09:00 +16°C° 0 mm 2 m/s 768 mmHg 71%
10:00 +18°C° 0 mm 1 m/s 767 mmHg 65%
11:00 +19°C° 0 mm 1 m/s 767 mmHg 59%
12:00 +19°C° 0 mm 1 m/s 767 mmHg 60%
13:00 +18°C° 0 mm 2 m/s 766 mmHg 60%
14:00 +18°C° 0 mm 3 m/s 765 mmHg 61%
15:00 +17°C° 0 mm 3 m/s 765 mmHg 66%
16:00 +16°C° 0 mm 3 m/s 765 mmHg 71%
17:00 +14°C° 0 mm 3 m/s 765 mmHg 76%
18:00 +13°C° 0 mm 3 m/s 766 mmHg 78%
19:00 +14°C° 0 mm 2 m/s 766 mmHg 79%
20:00 +14°C° 0 mm 2 m/s 767 mmHg 80%
21:00 +13°C° 0 mm 1 m/s 767 mmHg 81%
22:00 +13°C° 0 mm 1 m/s 766 mmHg 81%
23:00 +13°C° 0 mm 1 m/s 766 mmHg 81%

Poimâine, 24 Ianuarie, Duminică

Timp Temperatura Precipitaţii Vânt Presiune Umiditate
00:00 +13°C° 0 mm 1 m/s 766 mmHg 81%
01:00 +13°C° 0 mm 1 m/s 766 mmHg 81%
02:00 +13°C° 0 mm 1 m/s 765 mmHg 82%
03:00 +13°C° 0 mm 1 m/s 765 mmHg 81%
04:00 +13°C° 0 mm 1 m/s 765 mmHg 80%
05:00 +12°C° 0 mm 2 m/s 765 mmHg 79%
06:00 +13°C° 0 mm 2 m/s 765 mmHg 76%
07:00 +14°C° 0 mm 2 m/s 765 mmHg 72%
08:00 +15°C° 0 mm 1 m/s 765 mmHg 68%
09:00 +16°C° 0 mm 1 m/s 765 mmHg 67%
10:00 +19°C° 0 mm 1 m/s 765 mmHg 66%
11:00 +20°C° 0 mm 1 m/s 765 mmHg 65%
12:00 +19°C° 0 mm 2 m/s 765 mmHg 66%
13:00 +19°C° 0 mm 2 m/s 764 mmHg 68%
14:00 +19°C° 0 mm 3 m/s 764 mmHg 69%
15:00 +18°C° 0 mm 2 m/s 764 mmHg 75%
16:00 +17°C° 0 mm 2 m/s 764 mmHg 81%
17:00 +15°C° 0 mm 1 m/s 764 mmHg 88%
18:00 +15°C° 0 mm 1 m/s 764 mmHg 89%
19:00 +15°C° 0 mm 2 m/s 764 mmHg 90%
20:00 +16°C° 0 mm 2 m/s 765 mmHg 91%
21:00 +15°C° 0 mm 2 m/s 765 mmHg 92%
22:00 +15°C° 0 mm 1 m/s 765 mmHg 93%
23:00 +15°C° 0 mm 1 m/s 765 mmHg 93%

25 Ianuarie, Luni

Timp Temperatura Precipitaţii Vânt Presiune Umiditate
00:00 +15°C° 0 mm 1 m/s 765 mmHg 94%
01:00 +14°C° 0 mm 1 m/s 765 mmHg 94%
02:00 +14°C° 0 mm 1 m/s 765 mmHg 95%
03:00 +14°C° 0 mm 1 m/s 765 mmHg 94%
04:00 +14°C° 0 mm 2 m/s 765 mmHg 94%
05:00 +13°C° 0 mm 3 m/s 765 mmHg 93%
06:00 +14°C° 0 mm 3 m/s 765 mmHg 90%
07:00 +16°C° 0 mm 3 m/s 766 mmHg 87%
08:00 +16°C° 0 mm 3 m/s 766 mmHg 84%
09:00 +17°C° 0 mm 2 m/s 766 mmHg 79%
10:00 +19°C° 0 mm 2 m/s 766 mmHg 73%
11:00 +20°C° 0 mm 2 m/s 766 mmHg 68%
12:00 +20°C° 0 mm 2 m/s 766 mmHg 68%
13:00 +20°C° 0 mm 3 m/s 766 mmHg 68%
14:00 +20°C° 0 mm 3 m/s 765 mmHg 69%
15:00 +19°C° 0 mm 3 m/s 766 mmHg 76%
16:00 +18°C° 0 mm 3 m/s 766 mmHg 83%
17:00 +17°C° 0 mm 2 m/s 766 mmHg 90%
18:00 +16°C° 0 mm 2 m/s 767 mmHg 91%
19:00 +16°C° 0 mm 2 m/s 767 mmHg 92%
20:00 +15°C° 0 mm 2 m/s 768 mmHg 93%
21:00 +15°C° 0 mm 2 m/s 768 mmHg 94%
22:00 +15°C° 0 mm 2 m/s 768 mmHg 94%
23:00 +15°C° 0 mm 2 m/s 768 mmHg 94%

26 Ianuarie, Marţi

Timp Temperatura Precipitaţii Vânt Presiune Umiditate
00:00 +15°C° 0 mm 2 m/s 768 mmHg 94%
01:00 +15°C° 0 mm 2 m/s 768 mmHg 94%
02:00 +14°C° 0 mm 2 m/s 768 mmHg 94%
03:00 +13°C° 0 mm 3 m/s 768 mmHg 94%
04:00 +13°C° 0 mm 3 m/s 768 mmHg 94%
05:00 +13°C° 0 mm 3 m/s 768 mmHg 94%
06:00 +14°C° 0 mm 3 m/s 768 mmHg 93%
07:00 +16°C° 0 mm 3 m/s 768 mmHg 91%
08:00 +15°C° 0 mm 4 m/s 769 mmHg 90%
09:00 +17°C° 0 mm 4 m/s 769 mmHg 85%
10:00 +19°C° 0 mm 5 m/s 769 mmHg 80%
11:00 +20°C° 0 mm 6 m/s 769 mmHg 75%
12:00 +20°C° 0 mm 6 m/s 768 mmHg 75%
13:00 +20°C° 0 mm 6 m/s 768 mmHg 75%
14:00 +20°C° 0 mm 7 m/s 768 mmHg 75%
15:00 +19°C° 0 mm 6 m/s 768 mmHg 79%
16:00 +17°C° 0 mm 6 m/s 768 mmHg 84%
17:00 +16°C° 0 mm 6 m/s 768 mmHg 88%
18:00 +15°C° 0 mm 6 m/s 768 mmHg 89%
19:00 +15°C° 0 mm 6 m/s 769 mmHg 90%
20:00 +15°C° 0 mm 6 m/s 769 mmHg 91%
21:00 +14°C° 0 mm 6 m/s 769 mmHg 91%
22:00 +14°C° 0 mm 5 m/s 769 mmHg 92%
23:00 +14°C° 0 mm 5 m/s 769 mmHg 92%

27 Ianuarie, Miercuri

Timp Temperatura Precipitaţii Vânt Presiune Umiditate
00:00 +14°C° 0 mm 5 m/s 768 mmHg 92%
01:00 +14°C° 0 mm 5 m/s 768 mmHg 91%
02:00 +14°C° 0 mm 5 m/s 768 mmHg 91%
03:00 +13°C° 0 mm 5 m/s 768 mmHg 91%
04:00 +13°C° 0 mm 5 m/s 768 mmHg 91%
05:00 +13°C° 0 mm 5 m/s 767 mmHg 91%
06:00 +14°C° 0 mm 5 m/s 768 mmHg 88%
07:00 +14°C° 0 mm 5 m/s 768 mmHg 86%
08:00 +15°C° 0 mm 5 m/s 768 mmHg 83%
09:00 +17°C° 0 mm 5 m/s 768 mmHg 77%
10:00 +19°C° 0 mm 5 m/s 768 mmHg 71%
11:00 +21°C° 0 mm 5 m/s 768 mmHg 64%
12:00 +21°C° 0 mm 6 m/s 768 mmHg 65%
13:00 +21°C° 0 mm 6 m/s 768 mmHg 66%
14:00 +21°C° 0 mm 6 m/s 767 mmHg 66%
15:00 +20°C° 0 mm 6 m/s 767 mmHg 72%
16:00 +19°C° 0 mm 6 m/s 767 mmHg 78%
17:00 +16°C° 0 mm 6 m/s 767 mmHg 84%
18:00 +16°C° 0 mm 6 m/s 768 mmHg 86%
19:00 +15°C° 0 mm 6 m/s 768 mmHg 87%
20:00 +15°C° 0 mm 6 m/s 768 mmHg 89%
21:00 +15°C° 0 mm 6 m/s 768 mmHg 90%
22:00 +15°C° 0 mm 6 m/s 768 mmHg 91%
23:00 +15°C° 0 mm 6 m/s 768 mmHg 91%
Arată mai mult

Formular de consimțământ

Meteoprog și furnizorii noștri de servicii pot stoca și accesa date personale, precum cookies, identificatori de dispozitiv sau alte tehnologii similare pe dispozitivul dumneavoastră și procesa astfel de date pentru a personaliza conținutul și reclamele, dar și pentru a oferi caracteristici de social media și pentru a analiza traficul.

  • Stocarea și/sau accesarea informațiilor pe dispozitivul dumneavoastră

    Cookies, identificatori de dispozitiv sau alte informații pot fi stocate sau accesate pe dispozitiv în scopurile indicate mai sus.

  • Reclame și conținut personalizat, evaluarea reclamelor și a conținutului, informații despre audiențe și dezvoltarea produselor

    Reclamele și conținutul pot fi personalizate pe baza unui profil. Pot fi adăugate date suplimentare pentru a personaliza mai bine reclamele și conținutul. Performanța reclamelor și conținutului poate fi măsurată. Pot fi obținute informații despre utilizatorii care au văzut reclamele și conținutul. Aceste date pot fi utilizate pentru a dezvolta sau îmbunătăți experiența utilizatorilor, sistemele și software-ul.

Dând clic pe ‘Sunt de acord’, permiteți utilizarea cookie-urilor menționate, a identificatorilor de dispozitiv, balizelor web sau altor tehnologii similare. Setările pot fi modificate din browser-ul dispozitivului dumneavoastră.

În anumite scopuri, interesele legitime pot prima asupra consimțământului. Puteți citi mai multe informații în acest sens în Politica privind Confidențialitatea Datelor și Cookie.